This is the latest recevied weather packets stored in our database for station/object OE6PLD-13. If no packets are shown the sender has not sent any weather packets the latest 10 day(s).
| Time | Temp. | Humidity | Pressure | Rain* | Wind** | Luminosity | Snow |
|---|---|---|---|---|---|---|---|
| 1778135331 | 15° C | 82% | 1016 hPa | 0.76 mm | - | 104 W/m² | - |
| 1778135147 | 14.44° C | 82% | 1016.2 hPa | 0.76 mm | - | 103 W/m² | - |
| 1778134964 | 14.44° C | 83% | 1016 hPa | 0.76 mm | - | 97 W/m² | - |
| 1778134781 | 14.44° C | 83% | 1016 hPa | 0.76 mm | - | 94 W/m² | - |
| 1778134597 | 13.89° C | 84% | 1016 hPa | 0.76 mm | - | 96 W/m² | - |
| 1778134414 | 13.89° C | 85% | 1016.2 hPa | 0.76 mm | - | 97 W/m² | - |
| 1778134231 | 13.89° C | 85% | 1016.1 hPa | 0.76 mm | - | 96 W/m² | - |
| 1778134047 | 13.89° C | 85% | 1016.1 hPa | 0.76 mm | - | 86 W/m² | - |
| 1778133864 | 13.33° C | 86% | 1016.1 hPa | 0.76 mm | - | 75 W/m² | - |
| 1778133681 | 13.33° C | 86% | 1016.1 hPa | 0.76 mm | - | 66 W/m² | - |
| 1778133497 | 13.89° C | 85% | 1016 hPa | 0.76 mm | - | 65 W/m² | - |
| 1778133314 | 13.33° C | 86% | 1016 hPa | 0.76 mm | - | 65 W/m² | - |
| 1778133131 | 13.33° C | 86% | 1016 hPa | 0.76 mm | - | 62 W/m² | - |
| 1778132947 | 13.33° C | 87% | 1015.9 hPa | 0.76 mm | - | 55 W/m² | - |
| 1778132764 | 13.33° C | 87% | 1015.7 hPa | 0.76 mm | - | 52 W/m² | - |
| 1778132580 | 13.33° C | 87% | 1015.7 hPa | 0.76 mm | - | 52 W/m² | - |
| 1778132397 | 13.33° C | 87% | 1015.6 hPa | 0.76 mm | - | 50 W/m² | - |
| 1778132214 | 13.33° C | 87% | 1015.7 hPa | 0.76 mm | - | 48 W/m² | - |
| 1778132030 | 12.78° C | 87% | 1015.6 hPa | 0.76 mm | - | 46 W/m² | - |
| 1778131847 | 12.78° C | 87% | 1015.7 hPa | 0.76 mm | - | 44 W/m² | - |
| 1778131664 | 12.78° C | 87% | 1015.5 hPa | 0.76 mm | - | 41 W/m² | - |
| 1778131481 | 12.78° C | 87% | 1015.5 hPa | 0.76 mm | - | 38 W/m² | - |
| 1778131297 | 12.78° C | 88% | 1015.3 hPa | 0.76 mm | - | 36 W/m² | - |
| 1778131114 | 12.78° C | 88% | 1015.4 hPa | 0.76 mm | - | 36 W/m² | - |
| 1778130930 | 12.78° C | 88% | 1015.5 hPa | 0.76 mm | - | 36 W/m² | - |
* Rain latest hour (hover to see other rain measurements)
** Current wind speed in m/s (hover to see current wind gust speed)